Deva — A8OK3 — position and weather

sailwx.info

Track history (hours):
 
Tides and Currents Weather Stations Pressure Air Temp Water Temp Dewpoint Dewpoint Depression Visibility Wind Speed Wind Dir Waves Ship Positions

Deva

Last reported at 2014-Jul-23 15:33 UTC. Time now 2014-Jul-24 04:25 UTC.
Position N 46°04' W 008°02'.

Length 259 m; draft 11.3 m.

Type: Ship (hazmat cat A). MMSI: 636013644.

Date/timePositionNaut miles runAvg speedWind from/ knotsBaromVisibWave heightAir tempDewpointWater temp
2014-Jul-23 15:33N 46°04' W 008°02'1616.5
2014-Jul-23 14:33N 46°19' W 007°52'1616.3
2014-Jul-23 13:33N 46°33' W 007°41'14916.5
2014-Jul-23 04:30N 48°44' W 005°56'1616.0
2014-Jul-23 03:28N 48°57' W 005°40'1516.8
2014-Jul-23 02:33N 49°05' W 005°19'1616.4
2014-Jul-23 01:33N 49°13' W 004°58'1616.4
2014-Jul-23 00:33N 49°22' W 004°37'16816.2
2014-Jul-22 14:14N 50°24' W 000°35'1115.9
2014-Jul-22 13:33N 50°27' W 000°19'1716.1
2014-Jul-22 12:29N 50°32' E 000°07'1516.2
2014-Jul-22 11:33N 50°35' E 000°30'1716.8
2014-Jul-22 10:33N 50°45' E 000°52'1716.5
2014-Jul-22 09:33N 50°55' E 001°13'1616.5
2014-Jul-22 08:33N 51°06' E 001°32'1616.3
2014-Jul-22 07:34N 51°18' E 001°51'1313.4
2014-Jul-22 06:34N 51°22' E 002°11'1616.0
2014-Jul-22 05:34N 51°23' E 002°36'1514.8
2014-Jul-22 04:34N 51°25' E 002°60'1716.6
2014-Jul-22 03:34N 51°25' E 003°27'1111.3
2014-Jul-22 02:33N 51°22' E 003°44'1111.4
2014-Jul-22 01:34N 51°23' E 004°03'10 9.8
2014-Jul-22 00:34N 51°18' E 004°16'0 0.4
2014-Jul-21 23:32N 51°18' E 004°15'0 0.0
2014-Jul-21 22:32N 51°18' E 004°15'0 0.0
2014-Jul-21 21:32N 51°18' E 004°15'0 0.0
2014-Jul-21 20:29N 51°18' E 004°15'0 0.0
2014-Jul-21 20:17N 51°18' E 004°15'0 0.0
2014-Jul-21 19:32N 51°18' E 004°15'0 0.0
2014-Jul-21 18:32N 51°18' E 004°15'0 0.0
2014-Jul-21 17:32N 51°18' E 004°15'0 0.0
2014-Jul-21 16:32N 51°18' E 004°15'0 0.0
2014-Jul-21 15:32N 51°18' E 004°15'0 0.0
2014-Jul-21 14:32N 51°18' E 004°15'0 0.0
2014-Jul-21 13:32N 51°18' E 004°15'0 0.0
2014-Jul-21 12:32N 51°18' E 004°15'0 0.0
2014-Jul-21 11:32N 51°18' E 004°15'0 0.0
2014-Jul-21 10:32N 51°18' E 004°15'0 0.0
2014-Jul-21 09:33N 51°18' E 004°16'6 6.5
2014-Jul-21 08:33N 51°22' E 004°09'1211.8
2014-Jul-21 07:34N 51°21' E 003°50'1212.1
2014-Jul-21 06:33N 51°25' E 003°32'1817.5
2014-Jul-21 05:33N 51°24' E 003°04'1313.4
2014-Jul-21 04:33N 51°37' E 003°10'1212.4
2014-Jul-21 03:34N 51°49' E 003°16'1615.6
2014-Jul-21 02:33N 52°04' E 003°21'1918.5
2014-Jul-21 01:34N 52°23' E 003°26'2120.7
2014-Jul-21 00:33N 52°42' E 003°38'2420.9
2014-Jul-20 23:23N 53°01' E 004°04'1820.2
2014-Jul-20 22:29N 53°14' E 004°25'1820.1
2014-Jul-20 21:34N 53°29' E 004°42'2221.8
2014-Jul-20 20:34N 53°38' E 005°16'2222.4
2014-Jul-20 19:34N 53°45' E 005°52'2221.8
2014-Jul-20 18:34N 53°51' E 006°27'2221.3
2014-Jul-20 17:33N 53°55' E 007°03'2020.7
2014-Jul-20 16:33N 53°59' E 007°37'1615.3
2014-Jul-20 15:31N 53°51' E 008°01'1414.5
2014-Jul-20 14:33N 53°43' E 008°19'10 9.8
2014-Jul-20 13:31N 53°36' E 008°31'0 0.0
2014-Jul-20 12:31N 53°36' E 008°31'0 0.0
2014-Jul-20 11:31N 53°36' E 008°31'0 0.0
2014-Jul-20 10:31N 53°36' E 008°31'0 0.0
2014-Jul-20 09:31N 53°36' E 008°31'0 0.0
2014-Jul-20 08:31N 53°36' E 008°31'0 0.0
2014-Jul-20 07:31N 53°36' E 008°31'0 0.0
2014-Jul-20 06:31N 53°36' E 008°31'0 0.0
2014-Jul-20 05:31N 53°36' E 008°31'0 0.0
2014-Jul-20 04:31N 53°36' E 008°31'0 0.0
2014-Jul-20 03:31N 53°36' E 008°31'0 0.0
2014-Jul-20 02:31N 53°36' E 008°31'0 0.0
2014-Jul-20 01:31N 53°36' E 008°31'0 0.0
2014-Jul-20 00:31N 53°36' E 008°31'0 0.0
2014-Jul-19 23:31N 53°36' E 008°31'0 0.0
2014-Jul-19 22:31N 53°36' E 008°31'0 0.0
2014-Jul-19 21:31N 53°36' E 008°31'0 0.0
2014-Jul-19 20:31N 53°36' E 008°31'1 0.8
2014-Jul-19 19:33N 53°36' E 008°30'1211.9
2014-Jul-19 18:33N 53°44' E 008°15'1414.2
2014-Jul-19 17:33N 53°52' E 007°55'6 0.9
2014-Jul-19 11:26N 53°55' E 007°47'0 0.0
2014-Jul-19 10:26N 53°55' E 007°47'0 0.0
2014-Jul-19 09:32N 53°55' E 007°47'0 0.0
2014-Jul-19 08:32N 53°55' E 007°47'0 0.0
2014-Jul-19 07:23N 53°55' E 007°47'0 0.0
2014-Jul-19 06:32N 53°55' E 007°47'0 0.0
2014-Jul-19 05:32N 53°55' E 007°47'0 0.0
2014-Jul-19 04:32N 53°55' E 007°47'0 0.0
2014-Jul-19 03:32N 53°55' E 007°47'0 0.2
2014-Jul-19 02:29N 53°55' E 007°48'0 0.1
2014-Jul-19 01:32N 53°55' E 007°48'0 0.0
2014-Jul-19 00:29N 53°55' E 007°48'0 0.2
2014-Jul-18 23:32N 53°55' E 007°47'0 0.1
2014-Jul-18 22:32N 53°55' E 007°47'0 0.0
2014-Jul-18 21:32N 53°55' E 007°47'0 0.0
2014-Jul-18 20:32N 53°55' E 007°47'0 0.0
2014-Jul-18 19:32N 53°55' E 007°47'0 0.0
2014-Jul-18 18:32N 53°55' E 007°47'0 0.0
2014-Jul-18 17:32N 53°55' E 007°47'0 0.1
2014-Jul-18 16:32N 53°55' E 007°47'0 0.0
2014-Jul-18 11:29N 53°55' E 007°48'0 0.2
2014-Jul-18 10:29N 53°55' E 007°47'0 0.1
2014-Jul-18 09:11N 53°55' E 007°47'0 0.0
2014-Jul-18 08:32N 53°55' E 007°47'0 0.0
2014-Jul-18 07:32N 53°55' E 007°47'0 0.0
2014-Jul-18 06:32N 53°55' E 007°47'0 0.0
2014-Jul-18 05:29N 53°55' E 007°47'0 0.0
2014-Jul-18 04:31N 53°55' E 007°47'0 0.1
2014-Jul-18 03:31N 53°55' E 007°47'0 0.1
2014-Jul-18 02:32N 53°55' E 007°48'0 0.0
2014-Jul-18 01:31N 53°55' E 007°48'0 0.0
2014-Jul-18 00:31N 53°55' E 007°48'0 0.0
2014-Jul-17 23:31N 53°55' E 007°48'0 0.1
2014-Jul-17 22:31N 53°55' E 007°48'0 0.1
2014-Jul-17 21:31N 53°55' E 007°47'0 0.1
2014-Jul-17 20:31N 53°55' E 007°47'0 0.0
2014-Jul-17 19:31N 53°55' E 007°47'0 0.0
2014-Jul-17 17:22N 53°55' E 007°47'2 1.8
2014-Jul-17 16:27N 53°55' E 007°45'2312.3
2014-Jul-17 14:33N 53°51' E 007°06'1313.5
2014-Jul-17 13:33N 53°48' E 006°43'1414.2
2014-Jul-17 12:33N 53°44' E 006°20'1919.3
2014-Jul-17 11:34N 53°38' E 005°49'1717.0
2014-Jul-17 10:34N 53°33' E 005°22'1414.3
2014-Jul-17 09:33N 53°28' E 004°59'1413.7
2014-Jul-17 08:33N 53°21' E 004°40'1515.0
2014-Jul-17 07:33N 53°08' E 004°28'1514.6
2014-Jul-17 06:33N 52°54' E 004°18'1514.5
2014-Jul-17 05:33N 52°42' E 004°05'1414.0
2014-Jul-17 04:33N 52°30' E 003°55'1313.3
2014-Jul-17 03:33N 52°16' E 003°52'1212.2
2014-Jul-17 02:33N 52°04' E 003°53'9 9.2
2014-Jul-17 01:33N 51°59' E 004°06'1110.8
2014-Jul-17 00:33N 51°54' E 004°21'3 3.1
2014-Jul-16 23:32N 51°54' E 004°26'0 0.0
2014-Jul-16 22:32N 51°54' E 004°26'0 0.0
2014-Jul-16 21:32N 51°54' E 004°26'0 0.0
2014-Jul-16 20:32N 51°54' E 004°26'0 0.0
2014-Jul-16 19:32N 51°54' E 004°26'0 0.0
2014-Jul-16 18:32N 51°54' E 004°26'0 0.0
2014-Jul-16 17:32N 51°54' E 004°26'0 0.0
2014-Jul-16 16:32N 51°54' E 004°26'0 0.0
2014-Jul-16 15:32N 51°54' E 004°26'0 0.0
2014-Jul-16 14:32N 51°54' E 004°26'0 0.0
2014-Jul-16 13:32N 51°54' E 004°26'0 0.0
2014-Jul-16 12:28N 51°54' E 004°26'0 0.0
2014-Jul-16 11:28N 51°54' E 004°26'0 0.0
2014-Jul-16 10:31N 51°54' E 004°26'0 0.0
2014-Jul-16 09:31N 51°54' E 004°26'0 0.0
2014-Jul-16 08:31N 51°54' E 004°26'0 0.0
2014-Jul-16 07:28N 51°54' E 004°26'0 0.0
2014-Jul-16 06:28N 51°54' E 004°26'0 0.0
2014-Jul-16 05:28N 51°54' E 004°26'0 0.0
2014-Jul-16 04:31N 51°54' E 004°26'0 0.0
2014-Jul-16 03:28N 51°54' E 004°26'0 0.0
2014-Jul-16 02:31N 51°54' E 004°26'0 0.0
2014-Jul-16 01:31N 51°54' E 004°26'0 0.0
2014-Jul-16 00:31N 51°54' E 004°26'0 0.0
2014-Jul-15 23:28N 51°54' E 004°26'0 0.0
2014-Jul-15 22:31N 51°54' E 004°26'0 0.0
2014-Jul-15 21:31N 51°54' E 004°26'0 0.0
2014-Jul-15 20:28N 51°54' E 004°26'0 0.0
2014-Jul-15 19:31N 51°54' E 004°26'0 0.0
2014-Jul-15 18:28N 51°54' E 004°26'0 0.0
2014-Jul-15 17:28N 51°54' E 004°26'0 0.0
2014-Jul-15 15:28N 51°54' E 004°26'0 0.0
2014-Jul-15 14:31N 51°54' E 004°26'0 0.0
2014-Jul-15 13:31N 51°54' E 004°26'0 0.0
2014-Jul-15 12:33N 51°54' E 004°26'5 4.8
2014-Jul-15 11:33N 51°54' E 004°18'8 8.2
2014-Jul-15 10:33N 51°58' E 004°07'1111.1
2014-Jul-15 09:33N 51°60' E 003°49'4 3.6
2014-Jul-15 08:33N 51°57' E 003°46'0 0.1
2014-Jul-15 07:33N 51°57' E 003°46'0 0.0
2014-Jul-15 06:33N 51°57' E 003°46'0 0.0
2014-Jul-15 05:33N 51°57' E 003°46'0 0.0
2014-Jul-15 04:33N 51°57' E 003°46'0 0.0
2014-Jul-15 03:33N 51°57' E 003°45'0 0.0
2014-Jul-15 02:33N 51°57' E 003°46'0 0.0
2014-Jul-15 01:33N 51°57' E 003°46'6 5.9
2014-Jul-15 00:33N 51°57' E 003°36'1212.1
2014-Jul-14 23:33N 51°55' E 003°17'1211.8
2014-Jul-14 22:33N 51°53' E 002°58'1010.6
2014-Jul-14 21:33N 51°51' E 002°41'1211.8
2014-Jul-14 20:33N 51°52' E 002°22'1212.3
2014-Jul-14 19:33N 51°51' E 002°02'1211.8
2014-Jul-14 18:33N 51°50' E 001°43'1010.1
2014-Jul-14 17:33N 51°56' E 001°31'9 8.7
2014-Jul-14 16:33N 51°58' E 001°17'0 0.0
2014-Jul-14 15:33N 51°58' E 001°17'0 0.0
2014-Jul-14 14:33N 51°58' E 001°17'0 0.0
2014-Jul-14 13:33N 51°58' E 001°17'0 0.0
2014-Jul-14 12:33N 51°58' E 001°17'0 0.0
2014-Jul-14 11:33N 51°58' E 001°17'0 0.0
2014-Jul-14 10:33N 51°58' E 001°17'0 0.0
2014-Jul-14 09:33N 51°58' E 001°17'0 0.0
2014-Jul-14 08:33N 51°58' E 001°17'0 0.0
2014-Jul-14 07:33N 51°58' E 001°17'0 0.0
2014-Jul-14 06:33N 51°58' E 001°17'1 0.8
2014-Jul-14 05:34N 51°57' E 001°18'9 9.2
2014-Jul-14 04:34N 51°56' E 001°33'1111.1
2014-Jul-14 03:33N 51°50' E 001°48'1918.9
2014-Jul-14 02:33N 51°31' E 001°49'1212.1
2014-Jul-14 01:33N 51°22' E 002°01'1717.2
2014-Jul-14 00:33N 51°09' E 001°44'1716.9
2014-Jul-13 23:33N 50°56' E 001°25'1716.8
2014-Jul-13 22:33N 50°40' E 001°16'1716.8
2014-Jul-13 21:33N 50°30' E 000°55'1717.2
2014-Jul-13 20:33N 50°26' E 000°29'1717.5
2014-Jul-13 19:33N 50°21' E 000°03'1717.4
2014-Jul-13 18:33N 50°15' W 000°23'1817.5
2014-Jul-13 17:33N 50°11' W 000°50'1817.7
2014-Jul-13 16:33N 50°07' W 001°16'1817.6
2014-Jul-13 15:33N 50°02' W 001°43'  
Track history (hours):
 
Tides and Currents Weather Stations Pressure Air Temp Water Temp Dewpoint Dewpoint Depression Visibility Wind Speed Wind Dir Waves Ship Positions

Deva

Last reported at 2014-Jul-23 15:33 UTC. Time now 2014-Jul-24 04:25 UTC.
Position N 46°04' W 008°02'.

Length 259 m; draft 11.3 m.

Type: Ship (hazmat cat A). MMSI: 636013644.

Date/timePositionNaut miles runAvg speedWind from/ knotsBaromVisibWave heightAir tempDewpointWater temp
2014-Jul-23 15:33N 46°04' W 008°02'1616.5
2014-Jul-23 14:33N 46°19' W 007°52'1616.3
2014-Jul-23 13:33N 46°33' W 007°41'14916.5
2014-Jul-23 04:30N 48°44' W 005°56'1616.0
2014-Jul-23 03:28N 48°57' W 005°40'1516.8
2014-Jul-23 02:33N 49°05' W 005°19'1616.4
2014-Jul-23 01:33N 49°13' W 004°58'1616.4
2014-Jul-23 00:33N 49°22' W 004°37'16816.2
2014-Jul-22 14:14N 50°24' W 000°35'1115.9
2014-Jul-22 13:33N 50°27' W 000°19'1716.1
2014-Jul-22 12:29N 50°32' E 000°07'1516.2
2014-Jul-22 11:33N 50°35' E 000°30'1716.8
2014-Jul-22 10:33N 50°45' E 000°52'1716.5
2014-Jul-22 09:33N 50°55' E 001°13'1616.5
2014-Jul-22 08:33N 51°06' E 001°32'1616.3
2014-Jul-22 07:34N 51°18' E 001°51'1313.4
2014-Jul-22 06:34N 51°22' E 002°11'1616.0
2014-Jul-22 05:34N 51°23' E 002°36'1514.8
2014-Jul-22 04:34N 51°25' E 002°60'1716.6
2014-Jul-22 03:34N 51°25' E 003°27'1111.3
2014-Jul-22 02:33N 51°22' E 003°44'1111.4
2014-Jul-22 01:34N 51°23' E 004°03'10 9.8
2014-Jul-22 00:34N 51°18' E 004°16'0 0.4
2014-Jul-21 23:32N 51°18' E 004°15'0 0.0
2014-Jul-21 22:32N 51°18' E 004°15'0 0.0
2014-Jul-21 21:32N 51°18' E 004°15'0 0.0
2014-Jul-21 20:29N 51°18' E 004°15'0 0.0
2014-Jul-21 20:17N 51°18' E 004°15'0 0.0
2014-Jul-21 19:32N 51°18' E 004°15'0 0.0
2014-Jul-21 18:32N 51°18' E 004°15'0 0.0
2014-Jul-21 17:32N 51°18' E 004°15'0 0.0
2014-Jul-21 16:32N 51°18' E 004°15'0 0.0
2014-Jul-21 15:32N 51°18' E 004°15'0 0.0
2014-Jul-21 14:32N 51°18' E 004°15'0 0.0
2014-Jul-21 13:32N 51°18' E 004°15'0 0.0
2014-Jul-21 12:32N 51°18' E 004°15'0 0.0
2014-Jul-21 11:32N 51°18' E 004°15'0 0.0
2014-Jul-21 10:32N 51°18' E 004°15'0 0.0
2014-Jul-21 09:33N 51°18' E 004°16'6 6.5
2014-Jul-21 08:33N 51°22' E 004°09'1211.8
2014-Jul-21 07:34N 51°21' E 003°50'1212.1
2014-Jul-21 06:33N 51°25' E 003°32'1817.5
2014-Jul-21 05:33N 51°24' E 003°04'1313.4
2014-Jul-21 04:33N 51°37' E 003°10'1212.4
2014-Jul-21 03:34N 51°49' E 003°16'1615.6
2014-Jul-21 02:33N 52°04' E 003°21'1918.5
2014-Jul-21 01:34N 52°23' E 003°26'2120.7
2014-Jul-21 00:33N 52°42' E 003°38'2420.9
2014-Jul-20 23:23N 53°01' E 004°04'1820.2
2014-Jul-20 22:29N 53°14' E 004°25'1820.1
2014-Jul-20 21:34N 53°29' E 004°42'2221.8
2014-Jul-20 20:34N 53°38' E 005°16'2222.4
2014-Jul-20 19:34N 53°45' E 005°52'2221.8
2014-Jul-20 18:34N 53°51' E 006°27'2221.3
2014-Jul-20 17:33N 53°55' E 007°03'2020.7
2014-Jul-20 16:33N 53°59' E 007°37'1615.3
2014-Jul-20 15:31N 53°51' E 008°01'1414.5
2014-Jul-20 14:33N 53°43' E 008°19'10 9.8
2014-Jul-20 13:31N 53°36' E 008°31'0 0.0
2014-Jul-20 12:31N 53°36' E 008°31'0 0.0
2014-Jul-20 11:31N 53°36' E 008°31'0 0.0
2014-Jul-20 10:31N 53°36' E 008°31'0 0.0
2014-Jul-20 09:31N 53°36' E 008°31'0 0.0
2014-Jul-20 08:31N 53°36' E 008°31'0 0.0
2014-Jul-20 07:31N 53°36' E 008°31'0 0.0
2014-Jul-20 06:31N 53°36' E 008°31'0 0.0
2014-Jul-20 05:31N 53°36' E 008°31'0 0.0
2014-Jul-20 04:31N 53°36' E 008°31'0 0.0
2014-Jul-20 03:31N 53°36' E 008°31'0 0.0
2014-Jul-20 02:31N 53°36' E 008°31'0 0.0
2014-Jul-20 01:31N 53°36' E 008°31'0 0.0
2014-Jul-20 00:31N 53°36' E 008°31'0 0.0
2014-Jul-19 23:31N 53°36' E 008°31'0 0.0
2014-Jul-19 22:31N 53°36' E 008°31'0 0.0
2014-Jul-19 21:31N 53°36' E 008°31'0 0.0
2014-Jul-19 20:31N 53°36' E 008°31'1 0.8
2014-Jul-19 19:33N 53°36' E 008°30'1211.9
2014-Jul-19 18:33N 53°44' E 008°15'1414.2
2014-Jul-19 17:33N 53°52' E 007°55'6 0.9
2014-Jul-19 11:26N 53°55' E 007°47'0 0.0
2014-Jul-19 10:26N 53°55' E 007°47'0 0.0
2014-Jul-19 09:32N 53°55' E 007°47'0 0.0
2014-Jul-19 08:32N 53°55' E 007°47'0 0.0
2014-Jul-19 07:23N 53°55' E 007°47'0 0.0
2014-Jul-19 06:32N 53°55' E 007°47'0 0.0
2014-Jul-19 05:32N 53°55' E 007°47'0 0.0
2014-Jul-19 04:32N 53°55' E 007°47'0 0.0
2014-Jul-19 03:32N 53°55' E 007°47'0 0.2
2014-Jul-19 02:29N 53°55' E 007°48'0 0.1
2014-Jul-19 01:32N 53°55' E 007°48'0 0.0
2014-Jul-19 00:29N 53°55' E 007°48'0 0.2
2014-Jul-18 23:32N 53°55' E 007°47'0 0.1
2014-Jul-18 22:32N 53°55' E 007°47'0 0.0
2014-Jul-18 21:32N 53°55' E 007°47'0 0.0
2014-Jul-18 20:32N 53°55' E 007°47'0 0.0
2014-Jul-18 19:32N 53°55' E 007°47'0 0.0
2014-Jul-18 18:32N 53°55' E 007°47'0 0.0
2014-Jul-18 17:32N 53°55' E 007°47'0 0.1
2014-Jul-18 16:32N 53°55' E 007°47'0 0.0
2014-Jul-18 11:29N 53°55' E 007°48'0 0.2
2014-Jul-18 10:29N 53°55' E 007°47'0 0.1
2014-Jul-18 09:11N 53°55' E 007°47'0 0.0
2014-Jul-18 08:32N 53°55' E 007°47'0 0.0
2014-Jul-18 07:32N 53°55' E 007°47'0 0.0
2014-Jul-18 06:32N 53°55' E 007°47'0 0.0
2014-Jul-18 05:29N 53°55' E 007°47'0 0.0
2014-Jul-18 04:31N 53°55' E 007°47'0 0.1
2014-Jul-18 03:31N 53°55' E 007°47'0 0.1
2014-Jul-18 02:32N 53°55' E 007°48'0 0.0
2014-Jul-18 01:31N 53°55' E 007°48'0 0.0
2014-Jul-18 00:31N 53°55' E 007°48'0 0.0
2014-Jul-17 23:31N 53°55' E 007°48'0 0.1
2014-Jul-17 22:31N 53°55' E 007°48'0 0.1
2014-Jul-17 21:31N 53°55' E 007°47'0 0.1
2014-Jul-17 20:31N 53°55' E 007°47'0 0.0
2014-Jul-17 19:31N 53°55' E 007°47'0 0.0
2014-Jul-17 17:22N 53°55' E 007°47'2 1.8
2014-Jul-17 16:27N 53°55' E 007°45'2312.3
2014-Jul-17 14:33N 53°51' E 007°06'1313.5
2014-Jul-17 13:33N 53°48' E 006°43'1414.2
2014-Jul-17 12:33N 53°44' E 006°20'1919.3
2014-Jul-17 11:34N 53°38' E 005°49'1717.0
2014-Jul-17 10:34N 53°33' E 005°22'1414.3
2014-Jul-17 09:33N 53°28' E 004°59'1413.7
2014-Jul-17 08:33N 53°21' E 004°40'1515.0
2014-Jul-17 07:33N 53°08' E 004°28'1514.6
2014-Jul-17 06:33N 52°54' E 004°18'1514.5
2014-Jul-17 05:33N 52°42' E 004°05'1414.0
2014-Jul-17 04:33N 52°30' E 003°55'1313.3
2014-Jul-17 03:33N 52°16' E 003°52'1212.2
2014-Jul-17 02:33N 52°04' E 003°53'9 9.2
2014-Jul-17 01:33N 51°59' E 004°06'1110.8
2014-Jul-17 00:33N 51°54' E 004°21'3 3.1
2014-Jul-16 23:32N 51°54' E 004°26'0 0.0
2014-Jul-16 22:32N 51°54' E 004°26'0 0.0
2014-Jul-16 21:32N 51°54' E 004°26'0 0.0
2014-Jul-16 20:32N 51°54' E 004°26'0 0.0
2014-Jul-16 19:32N 51°54' E 004°26'0 0.0
2014-Jul-16 18:32N 51°54' E 004°26'0 0.0
2014-Jul-16 17:32N 51°54' E 004°26'0 0.0
2014-Jul-16 16:32N 51°54' E 004°26'0 0.0
2014-Jul-16 15:32N 51°54' E 004°26'0 0.0
2014-Jul-16 14:32N 51°54' E 004°26'0 0.0
2014-Jul-16 13:32N 51°54' E 004°26'0 0.0
2014-Jul-16 12:28N 51°54' E 004°26'0 0.0
2014-Jul-16 11:28N 51°54' E 004°26'0 0.0
2014-Jul-16 10:31N 51°54' E 004°26'0 0.0
2014-Jul-16 09:31N 51°54' E 004°26'0 0.0
2014-Jul-16 08:31N 51°54' E 004°26'0 0.0
2014-Jul-16 07:28N 51°54' E 004°26'0 0.0
2014-Jul-16 06:28N 51°54' E 004°26'0 0.0
2014-Jul-16 05:28N 51°54' E 004°26'0 0.0
2014-Jul-16 04:31N 51°54' E 004°26'0 0.0
2014-Jul-16 03:28N 51°54' E 004°26'0 0.0
2014-Jul-16 02:31N 51°54' E 004°26'0 0.0
2014-Jul-16 01:31N 51°54' E 004°26'0 0.0
2014-Jul-16 00:31N 51°54' E 004°26'0 0.0
2014-Jul-15 23:28N 51°54' E 004°26'0 0.0
2014-Jul-15 22:31N 51°54' E 004°26'0 0.0
2014-Jul-15 21:31N 51°54' E 004°26'0 0.0
2014-Jul-15 20:28N 51°54' E 004°26'0 0.0
2014-Jul-15 19:31N 51°54' E 004°26'0 0.0
2014-Jul-15 18:28N 51°54' E 004°26'0 0.0
2014-Jul-15 17:28N 51°54' E 004°26'0 0.0
2014-Jul-15 15:28N 51°54' E 004°26'0 0.0
2014-Jul-15 14:31N 51°54' E 004°26'0 0.0
2014-Jul-15 13:31N 51°54' E 004°26'0 0.0
2014-Jul-15 12:33N 51°54' E 004°26'5 4.8
2014-Jul-15 11:33N 51°54' E 004°18'8 8.2
2014-Jul-15 10:33N 51°58' E 004°07'1111.1
2014-Jul-15 09:33N 51°60' E 003°49'4 3.6
2014-Jul-15 08:33N 51°57' E 003°46'0 0.1
2014-Jul-15 07:33N 51°57' E 003°46'0 0.0
2014-Jul-15 06:33N 51°57' E 003°46'0 0.0
2014-Jul-15 05:33N 51°57' E 003°46'0 0.0
2014-Jul-15 04:33N 51°57' E 003°46'0 0.0
2014-Jul-15 03:33N 51°57' E 003°45'0 0.0
2014-Jul-15 02:33N 51°57' E 003°46'0 0.0
2014-Jul-15 01:33N 51°57' E 003°46'6 5.9
2014-Jul-15 00:33N 51°57' E 003°36'1212.1
2014-Jul-14 23:33N 51°55' E 003°17'1211.8
2014-Jul-14 22:33N 51°53' E 002°58'1010.6
2014-Jul-14 21:33N 51°51' E 002°41'1211.8
2014-Jul-14 20:33N 51°52' E 002°22'1212.3
2014-Jul-14 19:33N 51°51' E 002°02'1211.8
2014-Jul-14 18:33N 51°50' E 001°43'1010.1
2014-Jul-14 17:33N 51°56' E 001°31'9 8.7
2014-Jul-14 16:33N 51°58' E 001°17'0 0.0
2014-Jul-14 15:33N 51°58' E 001°17'0 0.0
2014-Jul-14 14:33N 51°58' E 001°17'0 0.0
2014-Jul-14 13:33N 51°58' E 001°17'0 0.0
2014-Jul-14 12:33N 51°58' E 001°17'0 0.0
2014-Jul-14 11:33N 51°58' E 001°17'0 0.0
2014-Jul-14 10:33N 51°58' E 001°17'0 0.0
2014-Jul-14 09:33N 51°58' E 001°17'0 0.0
2014-Jul-14 08:33N 51°58' E 001°17'0 0.0
2014-Jul-14 07:33N 51°58' E 001°17'0 0.0
2014-Jul-14 06:33N 51°58' E 001°17'1 0.8
2014-Jul-14 05:34N 51°57' E 001°18'9 9.2
2014-Jul-14 04:34N 51°56' E 001°33'1111.1
2014-Jul-14 03:33N 51°50' E 001°48'1918.9
2014-Jul-14 02:33N 51°31' E 001°49'1212.1
2014-Jul-14 01:33N 51°22' E 002°01'1717.2
2014-Jul-14 00:33N 51°09' E 001°44'1716.9
2014-Jul-13 23:33N 50°56' E 001°25'1716.8
2014-Jul-13 22:33N 50°40' E 001°16'1716.8
2014-Jul-13 21:33N 50°30' E 000°55'1717.2
2014-Jul-13 20:33N 50°26' E 000°29'1717.5
2014-Jul-13 19:33N 50°21' E 000°03'1717.4
2014-Jul-13 18:33N 50°15' W 000°23'1817.5
2014-Jul-13 17:33N 50°11' W 000°50'1817.7
2014-Jul-13 16:33N 50°07' W 001°16'1817.6
2014-Jul-13 15:33N 50°02' W 001°43'  

Dump ship's entire track history